Wind_Speed
15 14 15 15 13 12 10 9 8 7 6 5 4 4 4 5 5 6 7 8 9 10 11 12 12 12 12 12 12 13 14 15 16 16 17 18 19 20 21 21 21 21
18 17 17 17 15 13 12 10 9 8 8 7 6 6 6 7 7 7 8 8 9 10 11 11 12 12 12 12 12 12 12 13 14 14 15 15 16 17 18 19 19 20
22 20 19 18 16 15 13 12 11 10 9 9 8 8 8 9 9 9 9 10 10 10 11 12 12 12 12 12 12 11 11 11 12 13 13 13 14 14 15 16 17 17
24 22 21 20 18 16 14 13 12 11 11 11 10 10 10 11 11 11 11 11 11 11 12 12 12 12 12 12 11 11 11 11 11 12 13 13 13 13 13 14 14 15
25 24 23 22 20 17 15 14 13 14 13 12 12 12 12 12 13 13 13 13 13 13 13 13 13 13 12 12 11 11 11 11 11 11 12 12 12 12 12 12 12 13
27 27 25 24 21 19 17 16 15 15 15 14 14 14 14 14 14 15 15 15 15 14 14 14 14 13 13 13 12 12 11 11 11 11 11 12 12 12 11 11 11 12
28 27 26 24 22 20 19 18 17 16 16 16 15 15 15 16 16 16 17 17 16 16 15 15 14 14 14 14 14 13 13 12 12 12 12 12 12 12 12 11 11 11
27 27 26 25 23 22 21 20 18 17 17 17 17 17 17 17 17 17 18 17 17 16 16 15 15 15 15 15 15 15 14 14 13 13 12 12 12 13 13 13 12 11
28 28 28 27 25 23 22 21 19 19 19 19 19 19 18 18 17 17 17 17 17 16 15 15 14 15 15 15 15 15 15 15 15 14 14 13 13 13 13 14 13 13
31 30 30 30 28 25 23 22 22 21 20 20 20 19 19 18 17 17 16 16 16 16 15 15 14 14 14 14 14 15 15 15 15 15 15 15 14 14 14 14 14 14
33 32 32 31 30 27 25 24 23 22 21 20 19 19 19 18 17 16 16 16 16 16 16 15 14 14 14 14 14 14 14 15 15 15 15 15 15 15 15 15 15 15
33 32 32 31 30 29 27 26 25 23 21 20 18 18 18 18 17 16 15 16 16 16 16 15 15 14 14 14 14 14 14 15 15 15 15 15 15 15 15 15 16 16
32 32 30 30 30 30 29 27 25 23 21 19 17 17 18 17 17 16 16 16 16 16 15 15 14 14 14 14 14 14 15 15 15 15 15 15 16 16 16 16 16 16
31 30 29 29 30 30 29 28 25 23 21 19 18 18 18 17 17 17 16 16 15 15 14 13 13 13 13 13 14 14 14 15 15 15 16 16 16 17 17 17 17 17
29 29 28 28 29 29 29 28 25 23 21 20 20 19 18 17 17 16 16 15 14 13 13 12 12 12 12 12 13 13 14 14 14 15 15 16 16 17 17 18 18 18
30 30 29 29 29 30 29 28 26 24 23 22 20 18 17 17 16 16 14 13 12 12 12 11 11 11 12 12 12 12 13 13 13 14 15 15 16 17 18 18 18 19
31 31 31 31 31 31 30 28 27 25 23 22 20 18 16 16 16 15 14 12 12 12 11 11 11 11 12 12 12 12 12 12 13 13 14 15 15 16 17 18 18 19
31 31 31 31 31 30 29 28 26 25 23 21 19 17 15 15 16 15 14 13 13 12 11 11 11 12 13 13 13 13 13 12 13 13 13 14 14 15 16 17 18 19
31 30 30 30 30 29 28 26 25 23 21 19 17 16 16 16 16 15 14 14 14 13 13 12 12 13 14 14 14 14 14 13 13 13 14 14 15 15 15 16 17 18
31 31 31 30 29 28 27 26 24 22 20 19 17 17 17 17 16 15 15 16 15 15 15 14 14 13 14 15 15 15 15 15 14 14 14 14 15 16 16 16 17 18
32 32 32 31 31 30 29 27 25 23 21 20 19 19 19 18 17 17 17 16 16 16 16 16 15 15 16 16 17 17 17 16 15 15 15 15 15 16 17 17 18 18
33 33 34 33 33 33 31 29 26 25 23 22 21 21 20 19 19 18 18 18 17 17 17 17 16 17 18 18 18 19 19 18 18 17 16 16 16 16 17 18 18 19
35 36 37 36 35 35 33 30 28 26 25 24 23 22 21 20 20 19 19 19 19 18 18 18 17 18 19 19 20 20 21 20 19 19 18 18 17 17 17 18 19 20
37 38 40 40 38 36 34 31 29 27 26 25 24 23 22 21 21 21 21 20 20 20 19 19 19 19 20 20 21 22 23 22 21 20 20 19 18 18 19 19 20 20
40 41 43 44 42 39 36 32 30 28 26 25 24 24 23 22 22 22 22 22 22 22 22 22 21 21 21 21 22 23 25 24 23 22 22 21 20 19 20 20 21 21
44 43 44 45 44 41 37 34 31 29 27 27 26 24 24 24 24 24 24 24 23 23 24 24 24 23 23 23 23 24 26 26 26 24 23 22 21 21 21 21 21 22
Wind_Direction
248 246 235 229 230 233 237 240 243 248 255 265 281 301 319 337 352 3 11 16 17 20 21 22 24 25 25 24 22 20 20 20 24 31 36 37 37 37 39 40 43 45
242 239 232 229 231 234 239 244 248 254 261 270 281 293 305 316 327 338 348 355 0 5 8 10 12 14 16 19 19 18 16 14 15 20 26 30 31 32 34 35 36 38
236 232 227 226 228 231 237 245 251 257 263 270 280 288 296 303 312 320 329 337 345 350 354 357 0 3 6 10 12 13 11 9 8 9 13 19 22 23 26 29 30 31
229 225 223 223 226 229 234 242 251 257 263 270 278 285 291 297 303 310 317 325 332 337 342 346 349 353 356 360 2 4 4 4 3 2 2 6 11 13 15 19 21 22
222 219 220 223 225 228 232 238 246 255 262 269 275 281 287 292 297 304 311 317 323 328 332 336 340 343 346 349 352 354 355 356 356 356 355 356 359 2 3 5 8 11
218 217 219 222 226 229 232 237 243 252 260 267 273 279 285 291 296 303 308 313 318 321 325 328 331 334 336 338 341 344 346 347 348 349 348 348 349 352 353 353 355 357
219 221 222 224 227 231 234 238 242 249 258 265 272 278 284 290 296 301 306 310 315 318 321 324 326 328 330 331 334 336 338 340 341 341 341 341 340 342 345 346 346 346
221 226 229 229 229 231 235 239 243 249 256 262 269 275 280 287 293 298 303 307 311 315 320 323 326 327 327 329 330 331 333 335 336 336 335 335 334 334 336 339 340 340
221 226 232 235 235 235 237 241 244 247 253 259 264 270 277 282 288 294 298 303 307 310 315 319 323 324 326 327 328 329 330 331 332 332 332 332 331 330 330 332 334 336
223 226 231 236 238 239 239 242 244 247 250 255 260 266 273 278 283 288 292 296 300 303 307 313 316 318 320 322 323 324 325 327 328 329 330 330 330 329 328 327 328 330
226 228 232 236 240 242 244 244 246 248 249 252 256 262 268 273 277 281 285 288 292 296 299 303 307 309 311 313 315 316 318 320 322 324 326 327 327 327 327 326 325 325
228 231 234 238 241 244 247 248 248 250 250 251 254 258 263 267 271 274 278 281 284 288 292 296 300 303 306 308 309 311 313 315 316 318 319 321 322 323 323 323 323 322
228 231 235 239 242 245 247 248 248 248 249 250 251 254 257 262 266 269 272 274 278 283 290 296 302 306 309 310 312 314 315 315 316 316 316 316 317 317 318 318 318 318
225 228 232 237 241 244 246 246 245 244 244 245 246 248 251 256 260 263 265 269 276 284 292 300 308 312 314 315 317 319 321 321 321 319 317 316 315 314 313 313 313 313
220 221 225 230 235 239 241 241 240 239 239 240 241 243 247 251 255 259 263 269 277 284 292 301 309 314 316 318 320 322 324 325 325 323 321 319 317 314 312 311 310 310
218 217 219 222 227 231 234 236 236 235 236 237 239 241 244 249 254 258 263 269 275 281 290 299 307 310 312 315 319 321 323 326 327 326 325 323 319 317 314 313 310 308
219 218 218 219 222 225 228 230 232 233 235 237 239 241 243 247 252 258 264 269 273 278 287 297 303 305 306 310 315 318 320 323 325 326 326 325 323 320 317 314 311 309
219 220 221 221 221 222 225 227 229 231 233 235 237 239 242 245 249 256 263 269 274 278 284 291 295 297 300 305 308 311 314 317 320 324 326 326 326 324 320 317 313 310
220 221 222 223 223 223 224 226 228 229 230 232 234 236 238 242 248 254 260 266 272 278 282 284 286 289 294 298 301 303 307 310 316 322 325 326 327 326 324 320 317 313
223 222 223 224 224 224 224 225 226 228 230 230 232 234 236 242 248 252 256 262 268 275 279 280 283 286 289 292 295 298 301 306 313 319 323 324 326 327 327 325 322 320
228 227 226 226 225 224 224 224 224 225 228 230 232 235 239 242 246 250 254 259 264 269 274 279 285 288 289 291 294 296 299 303 308 314 318 321 324 327 328 328 326 327
237 235 232 230 229 228 226 224 223 223 225 229 232 236 239 242 246 251 255 259 262 266 271 277 284 288 289 292 294 296 297 300 305 309 312 316 321 326 327 327 328 330
236 242 241 236 233 232 230 226 224 223 224 228 232 236 240 244 248 252 256 260 264 268 271 276 281 284 287 290 293 295 296 298 302 305 308 313 320 323 323 324 327 331
224 236 243 242 238 236 234 231 228 226 226 229 233 238 242 246 250 254 258 262 267 270 273 276 277 279 283 287 291 293 294 297 301 303 306 310 316 319 319 322 326 329
215 223 233 238 238 236 236 235 233 232 231 232 236 240 244 249 253 256 260 264 268 272 274 276 276 278 280 285 288 291 293 296 300 302 304 308 312 314 316 319 324 326
214 218 225 231 234 235 236 236 236 236 236 236 238 241 245 251 255 258 261 264 267 270 273 275 277 279 281 284 287 289 292 296 299 301 304 307 308 310 313 317 320 322
Height
11018 11018 11019 11019 11020 11021 11021 11021 11022 11022 11022 11022 11021 11021 11021 11021 11021 11022 11022 11022 11021 11021 11021 11020 11020 11019 11018 11017 11016 11015 11014 11014 11014 11013 11013 11012 11011 11010 11009 11008 11007 11006
11016 11017 11018 11019 11019 11020 11021 11021 11022 11022 11022 11022 11022 11022 11022 11021 11022 11022 11022 11022 11022 11021 11021 11021 11020 11020 11019 11018 11017 11016 11015 11015 11014 11014 11014 11013 11012 11011 11010 11009 11008 11007
11014 11016 11017 11018 11018 11019 11020 11021 11021 11022 11022 11022 11022 11022 11022 11022 11022 11022 11022 11022 11022 11022 11022 11021 11021 11020 11020 11019 11018 11017 11016 11016 11015 11015 11014 11014 11013 11012 11011 11010 11009 11008
11012 11014 11015 11016 11016 11017 11019 11020 11020 11021 11021 11022 11022 11022 11022 11022 11022 11022 11022 11022 11023 11022 11022 11022 11021 11020 11020 11019 11019 11018 11017 11016 11016 11015 11014 11014 11013 11012 11012 11011 11010 11009
11010 11012 11013 11014 11015 11016 11017 11018 11019 11020 11020 11021 11022 11022 11022 11022 11022 11022 11022 11022 11022 11022 11022 11021 11021 11020 11020 11019 11019 11018 11018 11017 11016 11015 11014 11014 11013 11013 11012 11011 11011 11010
11007 11009 11010 11012 11013 11014 11016 11017 11018 11019 11019 11020 11020 11021 11021 11021 11021 11021 11021 11022 11022 11022 11021 11021 11021 11020 11019 11019 11019 11018 11018 11017 11016 11015 11014 11014 11013 11013 11012 11012 11011 11010
11006 11007 11009 11011 11012 11013 11014 11015 11016 11017 11018 11018 11019 11019 11020 11020 11020 11020 11020 11020 11020 11020 11021 11020 11020 11019 11019 11018 11018 11017 11017 11016 11016 11015 11014 11014 11013 11012 11012 11011 11011 11010
11005 11006 11007 11009 11010 11012 11012 11013 11015 11015 11016 11016 11017 11017 11018 11019 11019 11019 11019 11019 11019 11019 11019 11019 11019 11019 11018 11017 11017 11016 11016 11015 11015 11014 11014 11013 11012 11012 11011 11011 11010 11010
11003 11004 11005 11007 11008 11010 11011 11012 11013 11014 11014 11015 11015 11015 11016 11017 11017 11017 11017 11017 11017 11017 11017 11017 11017 11017 11017 11016 11016 11015 11015 11014 11014 11013 11013 11012 11012 11011 11010 11010 11009 11009
11000 11001 11003 11004 11006 11008 11010 11011 11012 11012 11013 11014 11014 11014 11015 11015 11016 11016 11016 11015 11015 11015 11015 11015 11016 11015 11015 11015 11014 11014 11013 11013 11012 11012 11012 11011 11011 11010 11010 11009 11008 11008
10997 10999 11000 11001 11003 11005 11007 11009 11010 11011 11012 11012 11013 11013 11013 11014 11014 11014 11014 11014 11014 11013 11013 11014 11014 11013 11013 11013 11013 11012 11011 11011 11011 11010 11010 11010 11009 11009 11008 11008 11007 11006
10995 10996 10998 11000 11002 11003 11005 11007 11008 11009 11010 11011 11011 11012 11012 11012 11012 11013 11013 11012 11012 11012 11012 11012 11012 11012 11011 11011 11010 11010 11010 11009 11009 11008 11008 11007 11007 11007 11007 11006 11006 11005
10992 10994 10996 10998 10999 11001 11002 11004 11005 11006 11007 11008 11009 11009 11010 11010 11011 11011 11011 11011 11010 11010 11010 11010 11010 11010 11010 11009 11008 11008 11007 11007 11006 11006 11005 11005 11005 11004 11004 11004 11004 11003
10989 10991 10993 10995 10997 10999 11000 11001 11002 11003 11005 11006 11006 11007 11007 11008 11009 11009 11009 11009 11009 11009 11009 11009 11009 11008 11008 11007 11007 11006 11005 11005 11005 11004 11003 11003 11002 11002 11001 11001 11001 11001
10987 10989 10990 10992 10994 10996 10997 10999 11000 11001 11002 11003 11003 11004 11005 11006 11006 11007 11007 11007 11007 11007 11007 11007 11007 11006 11006 11005 11005 11004 11004 11003 11003 11002 11001 11001 11000 10999 10999 10998 10998 10998
10984 10985 10987 10989 10991 10992 10994 10996 10997 10998 10999 11000 11001 11002 11003 11004 11004 11004 11005 11005 11005 11005 11005 11005 11005 11005 11004 11003 11003 11002 11002 11001 11001 11000 10999 10999 10998 10997 10997 10996 10995 10995
10981 10982 10984 10985 10987 10989 10991 10992 10994 10995 10996 10997 10999 11000 11001 11002 11002 11002 11002 11003 11003 11003 11003 11003 11003 11003 11002 11001 11001 11000 11000 11000 10999 10998 10998 10997 10996 10995 10995 10994 10993 10992
10977 10979 10981 10982 10984 10986 10988 10989 10991 10992 10993 10995 10996 10998 10999 11000 11000 11000 11000 11001 11001 11001 11002 11002 11002 11001 11001 11000 11000 10999 10998 10998 10998 10997 10996 10995 10994 10994 10993 10992 10991 10990
10975 10976 10978 10980 10981 10983 10985 10986 10988 10989 10991 10992 10994 10995 10996 10997 10997 10998 10999 10999 10999 10999 11000 11000 11001 11000 11000 10999 10998 10998 10997 10996 10996 10996 10995 10994 10993 10992 10991 10991 10990 10989
10973 10975 10976 10977 10979 10980 10982 10983 10985 10986 10988 10990 10991 10992 10993 10994 10995 10996 10997 10997 10997 10998 10998 10998 10999 10999 10999 10998 10997 10997 10996 10995 10995 10994 10993 10993 10992 10991 10990 10989 10988 10988
10972 10973 10975 10976 10977 10978 10979 10980 10982 10983 10985 10987 10988 10989 10990 10992 10993 10994 10995 10995 10996 10996 10996 10996 10997 10997 10997 10997 10996 10995 10994 10994 10993 10993 10992 10991 10990 10989 10988 10987 10987 10986
10971 10973 10974 10975 10976 10976 10976 10978 10979 10980 10982 10983 10985 10986 10987 10989 10990 10991 10992 10993 10994 10994 10994 10995 10995 10995 10995 10995 10994 10993 10993 10992 10992 10991 10991 10990 10989 10988 10987 10986 10985 10984
10968 10972 10973 10973 10973 10974 10974 10976 10976 10977 10979 10980 10981 10982 10984 10985 10987 10988 10989 10990 10990 10991 10992 10992 10993 10993 10993 10993 10992 10991 10990 10990 10990 10989 10989 10988 10988 10987 10986 10985 10984 10983
10958 10966 10970 10970 10970 10971 10972 10973 10974 10975 10976 10976 10977 10979 10980 10982 10983 10985 10986 10986 10987 10988 10989 10990 10990 10991 10991 10991 10990 10989 10988 10988 10988 10988 10987 10987 10987 10986 10985 10984 10983 10981
10948 10954 10960 10963 10964 10965 10967 10969 10971 10972 10972 10973 10974 10975 10977 10978 10980 10981 10982 10983 10984 10985 10986 10986 10987 10988 10988 10988 10988 10987 10986 10986 10987 10986 10986 10986 10985 10984 10983 10982 10981 10980
10942 10945 10949 10954 10957 10960 10962 10965 10966 10968 10969 10970 10970 10972 10974 10975 10976 10978 10979 10981 10982 10982 10982 10982 10983 10984 10985 10985 10986 10985 10984 10984 10984 10984 10984 10984 10984 10983 10982 10981 10980 10979